Regional Weather Roundup
Issued by NWS

Home | Current Version | Previous Version | Text Only | Print | Product List | Glossary On
Versions: 1 2 3 4 5 6 7 8 9 10 11 12 13 14 15 16 17 18 19 20 21 22 23 24 25 26 27 28 29 30 31 32 33 34 35 36 37 38 39 40 41 42 43 44 45 46 47 48 49 50
000
ASUS44 KFWD 190803
RWRTX
NORTH TEXAS HOURLY WEATHER ROUNDUP
NATIONAL WEATHER SERVICE FORT WORTH TX
300 AM CDT SUN APR 19 2015

NOTE: "FAIR" INDICATES FEW OR NO CLOUDS BELOW 12,000 FEET WITH NO
SIGNIFICANT WEATHER AND/OR OBSTRUCTIONS TO VISIBILITY.

TXZ118-119-190900-
DALLAS/FORT WORTH METROPLEX

CITY           SKY/WX    TMP DP  RH WIND       PRES   REMARKS
DFW AIRPORT    MOCLDY    57  56  96 S7        29.75F
DALLAS LOVE    MOCLDY    59  56  89 S5        29.75F
FTW MEACHAM    MOCLDY    57  55  93 S6        29.76S
DAL-EXECUTIVE  MOCLDY    56  55  97 S3        29.75F
FTW-ALLIANCE   MOCLDY    57  55  94 S5        29.75F
FTW-NAS-JRB    PTCLDY    59  56  89 S7        29.81S
FTW-SPINKS     MOCLDY    55  54  97 SW5       29.79S
ARLINGTON      CLOUDY    58  54  86 S5        29.76F
GRAND PRAIRIE  CLOUDY    57  57 100 S3        29.78S
ADDISON        MOCLDY   N/A N/A N/A S3        29.77S
MESQUITE         N/A    N/A N/A N/A MISG        N/A
LANCASTER      MOCLDY    55  54  94 CALM      29.77F
$$

TXZ091>094-102>105-117-120-121-131>134-190900-
NORTH CENTRAL TEXAS

CITY           SKY/WX    TMP DP  RH WIND       PRES   REMARKS
SHRMAN/DENISON MOCLDY    60  56  87 SE5       29.75S
GAINESVILLE    MOCLDY    56  52  87 S5        29.76F
BOWIE          PTCLDY    55  53  94 S8        29.74F
BRIDGEPORT     CLEAR     56  54  91 S6        29.78S
DECATUR        PTCLDY    57  55  93 S8        29.76S
DENTON         MOCLDY    55  54  96 S6        29.75F
MCKINNEY       PTCLDY    57  55  93 S3        29.75F
GREENVILLE     CLOUDY    59  55  88 CALM      29.76S
ROCKWALL       PTCLDY    57  57  99 S3        29.75S
TERRELL        PTCLDY    59  56  89 CALM      29.75F
WAXAHACHIE     CLOUDY    56  56 100 S5        29.78S
CLEBURNE       PTCLDY    55  55 100 S5        29.79F
GRANBURY       MOCLDY    57  55  92 SE3       29.80S
$$

TXZ083>090-098>101-113>116-127>130-139>142-154-155-190900-
WESTERN NORTH TEXAS

CITY           SKY/WX    TMP DP  RH WIND       PRES   REMARKS
WICHITA FALLS  CLEAR     55  51  86 S9        29.73S
WF-KICKAPOO    CLEAR     56  52  88 SE6       29.74S
VERNON         PTCLDY    57  48  72 SE6       29.73F
ABILENE        CLEAR     58  52  80 S7        29.75F
ABILENE-DYESS  CLEAR     57  51  81 S8        29.73F
BRECKENRIDGE   CLEAR     53  52  96 SE7       29.74F
MINERAL WELLS  CLEAR     56  54  93 S10       29.75F
STEPHENVILLE   CLEAR     55  53  93 S3        29.80F
COMANCHE       CLEAR     51  51 100 SE3       29.77F
COLEMAN        CLEAR     52  52 100 SW3       29.78F
BRADY          CLEAR     64  63  94 SW8       29.79F
$$

TXZ143>147-156>162-174-175-190900-
CENTRAL TEXAS

CITY           SKY/WX    TMP DP  RH WIND       PRES   REMARKS
WACO           PTCLDY    58  56  93 S8        29.79F
WACO-MCGREGOR  CLEAR     57  52  82 S7        29.80F
HILLSBORO      MOCLDY    56  54  90 CALM      29.78S
CORSICANA      MOCLDY    60  58  92 S6        29.80R
MEXIA          MOCLDY    58  56  96 N3        29.79F
HEARNE         MOCLDY    59  58  97 CALM      29.80F
TEMPLE         CLEAR     57  54  88 S6        29.79S
KILLEEN        CLEAR     57  55  94 S9        29.79F
FORT HOOD      CLEAR     58  57  97 S8        29.78F
LAMPASAS       CLEAR     57  56  97 SW3       29.80F
$$

TXZ095>097-106>112-122>126-135>138-148>153-164>167-190900-
EAST TEXAS

CITY           SKY/WX    TMP DP  RH WIND       PRES   REMARKS
PARIS          CLOUDY    61  52  72 MISG      29.77R
SULPHUR SPRNGS   N/A     59  58  96 E7        29.77F
MOUNT PLEASANT CLOUDY    59  58  97 NW3       29.79F
GILMER         CLOUDY    58  57  97 CALM      29.73F
TYLER          CLOUDY    59  56  89 NW8G17    29.76R
LONGVIEW       CLOUDY    60  57  89 SE5       29.75F
MARSHALL       CLOUDY    61  58  92 CALM      29.79F
ATHENS         CLOUDY    55  55 100 CALM      29.77R
PALESTINE      CLOUDY    58  57  96 SE3       29.78R
JACKSONVILLE   CLOUDY    59  57  96 CALM      29.78F
HENDERSON      CLOUDY    58  58 100 SE5       29.77F
NACOGDOCHES    CLOUDY    59  55  88 NE7       29.78F
LUFKIN         CLOUDY    62  58  86 E7        29.74F
$$

SUPPLEMENTAL OBSERVATIONS (CENTRAL)

CITY           SKY/WX    TMP DP  RH WIND       PRES   REMARKS
$$

SUPPLEMENTAL OBSERVATIONS (WEST)

CITY           SKY/WX    TMP DP  RH WIND       PRES   REMARKS
$$

SUPPLEMENTAL OBSERVATIONS (EAST)

CITY           SKY/WX    TMP DP  RH WIND       PRES   REMARKS
$$

SUPPLEMENTAL OBSERVATIONS ARE A COLLECTION OF AUTOMATED INSTRUMENTS
THAT ARE MAINTAINED BY A VARIETY OF FEDERAL AND STATE AGENCIES.
CERTAIN ELEMENTS...SUCH AS HUMIDITY VALUES AND SUSTAINED WIND
SPEEDS...MAY BE APPROXIMATED.



USA.gov is the U.S. government's official web portal to all federal, state and local government web resources and services.